Find Starlink 30593

NORAD ID: 58112 Int'l Des: 2023-161 Owner: SPXS Country: US Constellation: starlink operational
LEOCIRCULAR

現在のビュー

3D地球を読み込み中...

About Starlink 30593

Starlink 30593 (NORAD 58112) is a starlink constellation satellite (v2 mini) launched Oct 21, 2023 by SPXS of US. It operates in LEO, CIRCULAR orbit with a mass of 730.00 kg.

次回通過

Passes for default location (London). Set your location on the main map for personalized predictions.

高度履歴

Loading altitude history...

軌道要素

1 58112U 23161R 26237.02630169 .00003803 00000-0 12691-3 0 9993
2 58112 53.1599 103.5966 0000618 97.7599 262.3473 15.33544250160198
Epoch: Aug 25, 2026 • Age: 14 hours

現在のステータス

高度 481.3 km
遠地点 / 近地点 N/A
速度 7.62 km/s
衛星直下点 -46.19°S, 144.99°E
打ち上げ日 Oct 21, 2023
運用期間 2.8 years
タイプ internet

技術仕様

分類 Payload
質量 730.00 kg
乾燥質量 700.00 kg
総質量 730.00 kg
長さ 0.30 m
直径 4.10 m
スパン 29.00 m
形状 Box + pan
製造者 SPXS
バスタイプ Starlink V2M
フェーズステータス In Orbit
所有者/国 SPXS/US

Most Searched